Flag for Germany Weather past 2 weeks in Magdeburg, Saxony-Anhalt, Germany

Now
70 °F

Overcast.


Feels Like: 70 °F
Forecast: 55 / 69 °F
Wind: 2 mph from Southwest

Location: Magdeburg

Current Time: Oct 1, 2014 at 2:29:08 PM

Latest Report: Oct 1, 2014 at 2:00 PM


Visibility: 4 mi

Pressure: 30.32 "Hg

Humidity: 60%

Dew point: 55 °F

Location of MagdeburgLocation

Historic Weather in Magdeburg — Graph

°F

Magdeburg temperature yesterday

Maximum temperature yesterday: 69 °F (at 3:00 PM)
Minimum temperature yesterday: 60 °F (at 11:00 PM)
Average temperature yesterday: 64 °F

Past Weeks' High & Low Weather Summary

 TemperatureHumidityPressure
High77 °F (Sep 29, 3:00 PM)98% (Sep 20, 3:00 AM)30.39 "Hg (Sep 20, 3:00 AM)
Low44 °F (Sep 28, 6:00 AM)43% (Sep 17, 6:00 PM)29.83 "Hg (Sep 24, 7:00 PM)
Average60 °F80%30.07 "Hg
* Reported Sep 16 1:00 PM — Oct 1 1:00 PM, Magdeburg, Weather by CustomWeather, © 2014

Note: Actual official high and low records may vary slightly from our data, if they occured in-between our weather recording intervals... More about our weather records

Advertising

Magdeburg weather history for previous 24 hours

 ConditionsComfort  
Time TempWeatherWind HumidityBarometerVisibility
1:00 PM
Oct 1
67 °FOvercast.2 mph67%30.32 "Hg4 mi
12:00 PM66 °FHaze.2 mph72%30.33 "Hg3 mi
11:00 AM64 °FSunny.2 mph79%30.33 "Hg3 mi
10:00 AM60 °FFog.1 mph86%30.32 "Hg3 mi
9:00 AM54 °FFog.1 mph96%30.32 "Hg2 mi
8:00 AM51 °FFog.1 mph97%30.31 "Hg1 mi
7:00 AM52 °FFog.1 mph97%30.31 "Hg1 mi
6:00 AM53 °FFog.1 mph97%30.31 "Hg1 mi
5:00 AM53 °FClear.2 mph97%30.30 "Hg1 mi
4:00 AM54 °FClear.1 mph96%30.30 "Hg1 mi
3:00 AM54 °FClear.2 mph97%30.30 "Hg1 mi
2:00 AM56 °FFog.2 mph97%30.30 "Hg2 mi
1:00 AM56 °FFog.1 mph95%30.29 "Hg1 mi
12:00 AM57 °FFog.1 mph92%30.29 "Hg2 mi
11:00 PM
Sep 30
60 °FFog.2 mph85%30.29 "Hg3 mi
10:00 PM62 °FFog.1 mph87%30.28 "Hg3 mi
9:00 PM62 °FFog.1 mph94%30.28 "Hg3 mi
8:00 PM62 °FFog.1 mph90%30.27 "Hg4 mi
7:00 PM65 °FOvercast.1 mph82%30.26 "Hg5 mi
6:00 PM67 °FOvercast.2 mph77%30.25 "Hg7 mi
5:00 PM68 °FOvercast.2 mph76%30.25 "Hg16 mi
4:00 PM68 °FOvercast.1 mph74%30.25 "Hg12 mi
3:00 PM69 °FOvercast.1 mph73%30.24 "Hg14 mi
2:00 PM68 °FOvercast.2 mph75%30.24 "Hg12 mi
Weather by CustomWeather, © 2014

See weather overviewHow to use our weather pages